Other Public Products
Issued by NWS Grand Forks, ND

Home | Current Version | Previous Version | Graphics & Text | Print | Product List | Glossary On
Versions: 1 2 3 4 5 6 7 8 9 10 11 12 13 14 15 16 17 18 19 20 21 22 23 24 25 26 27 28 29 30 31 32 33 34 35 36 37 38 39 40 41 42 43 44 45 46 47 48 49 50
000
FPUS83 KFGF 240010
OPUFGF
PRAIRIE TO PINES WEATHER ROUNDUP
NATIONAL WEATHER SERVICE EASTERN NORTH DAKOTA/GRAND FORKS ND
700 PM CDT TUE AUG 23 2016

 **SATELLITE DATA USED TO AUGMENT SKY COVER AT AUTOMATED STATIONS**
 *****  WEATHER ACROSS EASTERN NORTH DAKOTA  *****

CITY           SKY/WX    TMP DP  RH WIND       PRES   REMARKS
GRAND FORKS    PTSUNNY   82  69  64 SW9       29.66R
6HR MIN TEMP:  78; 6HR MAX TEMP:  88;

GRAND FORKS AF CLOUDY    82  70  68 W8        29.68R
GRAND CITY NWS   N/A     82 N/A N/A SW6         N/A
BUXTON           N/A     85  72  65 S8          N/A  HX  90
DEVILS LAKE    SUNNY     77  57  50 NW16      29.74R
6HR MIN TEMP:  73; 6HR MAX TEMP:  80; 6HR PCP: TRACE;

FARGO          MOSUNNY   85  61  44 S22G35    29.71R
6HR MIN TEMP:  83; 6HR MAX TEMP:  91;

WAHPETON ARPT  CLEAR     81  59  47 S18G26    29.75S
$$

 *****  WEATHER ACROSS CENTRAL AND WESTERN NORTH DAKOTA  *****

CITY           SKY/WX    TMP DP  RH WIND       PRES   REMARKS
JAMESTOWN      CLOUDY    74  62  66 NW6       29.76R
6HR MIN TEMP:  73; 6HR MAX TEMP:  84;

BISMARCK       SUNNY     79  40  24 NW15      29.84R
6HR MIN TEMP:  79; 6HR MAX TEMP:  84;

MINOT          SUNNY     79  41  25 W21       29.80R
6HR MIN TEMP:  77; 6HR MAX TEMP:  81; 6HR PCP: TRACE;

MINOT AFB      SUNNY     78  42  27 NW16G23   29.79R
6HR MIN TEMP:  75; 6HR MAX TEMP:  80;

GARRISON         N/A     77  41  27 W18G30    29.83R
6HR MIN TEMP:  77; 6HR MAX TEMP:  82;

WILLISTON      SUNNY     76  40  27 W24G40    29.86R
6HR MIN TEMP:  76; 6HR MAX TEMP:  81;

DICKINSON      MOSUNNY   74  34  23 W15G29    29.90R
6HR MIN TEMP:  74; 6HR MAX TEMP:  79;

HETTINGER      SUNNY     78  33  19 NW18      29.94R
6HR MIN TEMP:  78; 6HR MAX TEMP:  81;

$$

 *****  OTHER OBSERVATIONS NORTHEAST NORTH DAKOTA  *****

CITY           SKY/WX    TMP DP  RH WIND       PRES   REMARKS
WALHALLA       NOT AVBL
LANGDON        CLOUDY    75  68  78 NW10      29.71S
CAVALIER       FAIR      79  70  73 NW12      29.65R
GRAFTON        FAIR      81  72  74 W13G20    29.67R
CANDO          NOT AVBL
FORT TOTTEN    NOT AVBL
ROLLA          FAIR      72  55  56 NW10      29.77S
RUGBY          NOT AVBL
 ***** THE ABOVE OBSERVATIONS ARE NON NWS ARE NOT QUALITY
        CONTROLLED AND MAY MIS-REPORT RAIN FOR SNOW...
$$

 *****  OTHER OBSERVATIONS SOUTHEAST NORTH DAKOTA *****

CITY           SKY/WX    TMP DP  RH WIND       PRES   REMARKS
COOPERSTOWN    NOT AVBL
VALLEY CITY    CLOUDY    75  68  78 NW7       29.77R
OAKES            N/A    N/A N/A N/A MISG        N/A
GWINNER        FAIR      79  68  69 S9        29.75R
BUFFALO          N/A     80  68  67 W8          N/A
WYNDMERE       NOT AVBL
 ***** THE ABOVE OBSERVATIONS ARE NON NWS ARE NOT QUALITY
       CONTROLLED AND MAY MIS-REPORT RAIN FOR SNOW...
$$

  *****  WEATHER ACROSS NORTHERN MINNESOTA  *****

CITY           SKY/WX    TMP DP  RH WIND       PRES   REMARKS
FLAG ISLAND    PTSUNNY   75  70  83 CALM      29.69S HAZE
WARROAD        PTSUNNY   77  72  83 E3        29.70R
ROSEAU         PTSUNNY   81  72  74 SE3       29.68S
HALLOCK        MOSUNNY   84  70  61 S12       29.63S
THF RVR FALLS  MOSUNNY   82  69  64 S16G25    29.71R
6HR MIN TEMP:  78; 6HR MAX TEMP:  88;

HALSTAD          N/A     85  64  50 S16         N/A
FOSSTON        MOSUNNY   81  64  57 S16       29.75F
BAUDETTE       SUNNY     83  68  60 S16       29.71R
6HR MIN TEMP:  77; 6HR MAX TEMP:  86;

WASKISH        SUNNY     82  70  65 S6G16     29.74S
CROOKSTON      CLOUDY    84  64  51 SW14G20   29.70R
$$
  *****  WEATHER ACROSS CENTRAL AND WEST MINNESOTA  *****

CITY           SKY/WX    TMP DP  RH WIND       PRES   REMARKS
BEMIDJI        SUNNY     81  69  67 S12G17    29.78S
PARK RAPIDS    MOSUNNY   82  70  66 S12       29.80F
6HR MIN TEMP:  81; 6HR MAX TEMP:  87;

WADENA         CLOUDY    79  70  73 S10G18    29.81F
DETROIT LAKES  SUNNY     81  64  57 S15G23    29.79R
MOORHEAD       SUNNY     82  63  51 S15G29    29.73S
FERGUS FALLS   MOSUNNY   81  64  57 S20G28    29.78S
ELBOW LAKE     FAIR      78  68  70 S13       29.80F
MORRIS MN      PTSUNNY   79  66  65 S14G21    29.79F
STAPLES        CLOUDY    79  68  69 S13       29.83
WHEATON        NOT AVBL
$$
  *****  WEATHER ELSEWHERE ACROSS MINNESOTA  *****

CITY           SKY/WX    TMP DP  RH WIND       PRES   REMARKS
DULUTH         MOCLDY    79  68  69 S14G23    29.90R
6HR MIN TEMP:  79; 6HR MAX TEMP:  85;

INTRNTL FALLS  SUNNY     83  66  56 S8G16     29.75R
6HR MIN TEMP:  77; 6HR MAX TEMP:  85;

ELY            CLEAR     81  63  54 S10G20    29.87R
CLOQUET        PTSUNNY   79  66  65 S8G16     29.90S
BRAINERD       CLOUDY    78  70  76 S14       29.84F
6HR MIN TEMP:  78; 6HR MAX TEMP:  83;

HIBBING        MOSUNNY   78  67  68 S8G22     29.85S
6HR MIN TEMP:  78; 6HR MAX TEMP:  83;

ALEXANDRIA     CLOUDY    78  68  71 S10       29.83F
6HR MIN TEMP:  78; 6HR MAX TEMP:  83;

SAINT CLOUD    PTSUNNY   77  69  76 S14       29.85F
6HR MIN TEMP:  77; 6HR MAX TEMP:  83;

MINNEAPOLIS    CLOUDY    77  64  64 SE17      29.87F
6HR MIN TEMP:  77; 6HR MAX TEMP:  84;

$$

  *****  WEATHER ACROSS SOUTH DAKOTA  *****

CITY           SKY/WX    TMP DP  RH WIND       PRES   REMARKS
SIOUX FALLS    CLOUDY    74  70  87 S14       29.79F
6HR MIN TEMP:  71; 6HR MAX TEMP:  74; 6HR PCP: TRACE;

BROOKINGS      CLOUDY    71  66  84 S8        29.80F
WATERTOWN      PTSUNNY   75  68  78 S14       29.78F
6HR MIN TEMP:  75; 6HR MAX TEMP:  83;

HURON          SUNNY     80  69  69 S14G25    29.74S
6HR MIN TEMP:  80; 6HR MAX TEMP:  85;

SISSETON         N/A     78  66  66 S14       29.74F
ABERDEEN       CLOUDY    80  67  64 NW18G25   29.73R
6HR MIN TEMP:  80; 6HR MAX TEMP:  88;

MITCHELL       SUNNY     81  71  71 SE12      29.76F
PIERRE         SUNNY     82  46  28 N16G25    29.82R
6HR MIN TEMP:  80; 6HR MAX TEMP:  86;

MOBRIDGE       SUNNY     82  43  25 N12G22    29.81R
RAPID CITY     CLOUDY    79  32  18 N18       29.97S
6HR MIN TEMP:  76; 6HR MAX TEMP:  82;

$$

  *****  SOME WEATHER IN NEARBY STATES *****

CITY           SKY/WX    TMP DP  RH WIND       PRES   REMARKS
GLASGOW MT     PTSUNNY   71  45  39 W33G48    29.90R
6HR MIN TEMP:  68; 6HR MAX TEMP:  73;

GREAT FALLS MT SUNNY     66  39  37 N21G33    30.13R
6HR MIN TEMP:  66; 6HR MAX TEMP:  73;

CHEYENNE WY    CLOUDY    78  23  13 VRB6      30.12R
6HR MIN TEMP:  77; 6HR MAX TEMP:  82;

SCOTTSBLUFF NE PTSUNNY   83  41  22 NE8       29.99R
6HR MIN TEMP:  81; 6HR MAX TEMP:  88;

OMAHA NE       TSTM      80  74  81 SE12      29.80F
6HR MIN TEMP:  77; 6HR MAX TEMP:  86; 6HR PCP:  0.09;

DES MOINES IA  CLOUDY    80  72  76 S15       29.90F
6HR MIN TEMP:  78; 6HR MAX TEMP:  83; 6HR PCP: TRACE;

DAVENPORT IA   MOCLDY    75  67  76 S15G23    30.05S
6HR MIN TEMP:  75; 6HR MAX TEMP:  80;

CHICAGO IL     MOCLDY    76  61  59 S14       30.12F
6HR MIN TEMP:  76; 6HR MAX TEMP:  81;

EAU CLAIRE WI  CLOUDY    77  65  66 S9        29.96F
6HR MIN TEMP:  77; 6HR MAX TEMP:  84;

LA CROSSE WI   CLOUDY    79  69  71 SE8       29.96F
6HR MIN TEMP:  79; 6HR MAX TEMP:  85;

$$

  *****  SOME NATIONAL WEATHER *****

CITY           SKY/WX    TMP DP  RH WIND       PRES   REMARKS
LA GUARDIA NY  PTCLDY    78  57  48 S13       30.23S
6HR MIN TEMP:  78; 6HR MAX TEMP:  84;

RALEIGH NC     PTCLDY    77  62  59 E6        30.26R               C1F1C2F2C3F3C4F4C5F5C6F6C7F7C8F8C9F9CaFaCbFbCcFcCdFdCe!



USA.gov is the U.S. government's official web portal to all federal, state and local government web resources and services.